This is the latest recevied weather packets stored in our database for station/object EA1HTW-13. If no packets are shown the sender has not sent any weather packets the latest 10 day(s).
| Time | Temp. | Humidity | Pressure | Rain* | Wind** | Luminosity | Snow |
|---|---|---|---|---|---|---|---|
| 1777996035 | 20° C | 49% | 1009.7 hPa | 0 mm | - | - | - |
| 1777995495 | 20.56° C | 46% | 1009.8 hPa | 0 mm | - | - | - |
| 1777994954 | 20° C | 48% | 1009.6 hPa | 0 mm | - | - | - |
| 1777994431 | 21.11° C | 46% | 1009.5 hPa | 0 mm | - | - | - |
| 1777993874 | 20.56° C | 49% | 1009.6 hPa | 0 mm | - | - | - |
| 1777993335 | 20.56° C | 52% | 1009.5 hPa | 0 mm | - | - | - |
| 1777992795 | 19.44° C | 52% | 1009.8 hPa | 0 mm | - | - | - |
| 1777992254 | 20° C | 52% | 1009.7 hPa | 0 mm | - | - | - |
| 1777991714 | 18.89° C | 55% | 1009.8 hPa | 0 mm | - | - | - |
| 1777991174 | 18.89° C | 54% | 1009.9 hPa | 0 mm | - | - | - |
| 1777990635 | 19.44° C | 52% | 1009.8 hPa | 0 mm | - | - | - |
| 1777990095 | 20° C | 54% | 1010 hPa | 0 mm | - | - | - |
| 1777989554 | 18.89° C | 56% | 1009.9 hPa | 0 mm | - | - | - |
| 1777989015 | 18.33° C | 55% | 1010.1 hPa | 0 mm | - | - | - |
| 1777988474 | 19.44° C | 55% | 1009.9 hPa | 0 mm | - | - | - |
| 1777987935 | 18.89° C | 54% | 1010 hPa | 0 mm | - | - | - |
| 1777987394 | 18.89° C | 56% | 1010.1 hPa | 0 mm | - | - | - |
| 1777986854 | 18.33° C | 59% | 1010 hPa | 0 mm | - | - | - |
| 1777986314 | 17.78° C | 60% | 1010 hPa | 0 mm | - | - | - |
| 1777985775 | 17.78° C | 62% | 1010 hPa | 0 mm | - | - | - |
| 1777985235 | 17.78° C | 62% | 1009.7 hPa | 0 mm | - | - | - |
| 1777984707 | 17.78° C | 61% | 1009.9 hPa | 0 mm | - | - | - |
| 1777984155 | 17.78° C | 63% | 1009.8 hPa | 0 mm | - | - | - |
| 1777983614 | 16.67° C | 67% | 1009.9 hPa | 0 mm | - | - | - |
| 1777983075 | 17.22° C | 66% | 1010.1 hPa | 0 mm | - | - | - |
* Rain latest hour (hover to see other rain measurements)
** Current wind speed in m/s (hover to see current wind gust speed)